Change the Weather History Date:

Sunday, August 10, 2014

  Actual Average (KWRI) Record (KWRI)
Temperature  
Mean Temperature 73 °F -  
Max Temperature 88 °F 83 °F 100 °F (2001)
Min Temperature 59 °F 64 °F 55 °F (1999)
Cooling Degree Days 8    
Growing Degree Days 23 (Base 50)    
Moisture  
Dew Point 59 °F    
Average Humidity 65    
Maximum Humidity 93    
Minimum Humidity 32    
Precipitation  
Precipitation 0.00 in - - ()
Sea Level Pressure  
Sea Level Pressure 30.12 in    
Wind  
Wind Speed 1 mph (NE)    
Max Wind Speed 6 mph    
Max Gust Speed -    
Visibility 10 miles    
Events      
Averages and records for this station are not official NWS values.
T = Trace of Precipitation, MM = Missing Value Source: NWS Daily Summary

Daily Weather History Graph

Daily Weather History Graph

Search for Another Location

Airport or City:

Trip Planner

Search our weather history database for the weather conditions in past years. The results will help you decide how hot, cold, wet, or windy it might be!

Date:

Astronomy

Aug. 10, 2014 Rise Set
Actual Time 6:06 AM EDT 8:02 PM EDT
Civil Twilight 5:36 AM EDT 8:31 PM EDT
Nautical Twilight 5:00 AM EDT 9:07 PM EDT
Astronomical Twilight 4:22 AM EDT 9:46 PM EDT
Moon 7:47 PM EDT (8/10) 5:55 AM EDT (8/10)
Length of Visible Light 14h 54m
Length of Day
13h 56m
Full, 100% of the Moon is Illuminated
Aug 10
Full
Aug 10
Full
Aug 17
Last Quarter
Aug 25
New
Sep 2
First Quarter

Hourly Weather History & Observations

Time (EDT) Temp. Heat Index Dew Point Humidity Pressure Visibility Wind Dir Wind Speed Gust Speed Precip Events Conditions
12:54 AM 66.0 °F - 60.1 °F 81% 30.12 in 10.0 mi Calm Calm - N/A   Clear
1:54 AM 64.0 °F - 60.1 °F 87% 30.12 in 10.0 mi Calm Calm - N/A   Clear
2:54 AM 62.1 °F - 60.1 °F 93% 30.11 in 10.0 mi Calm Calm - N/A   Clear
3:54 AM 62.1 °F - 59.0 °F 90% 30.11 in 10.0 mi Calm Calm - N/A   Clear
5:54 AM 59.0 °F - 57.0 °F 93% 30.12 in 4.0 mi Calm Calm - N/A   Clear
6:54 AM 60.1 °F - 57.9 °F 93% 30.13 in 9.0 mi Calm Calm - N/A   Clear
7:54 AM 66.0 °F - 62.1 °F 87% 30.14 in 9.0 mi Calm Calm - N/A   Clear
8:54 AM 72.0 °F - 64.0 °F 76% 30.14 in 10.0 mi North 3.5 mph - N/A   Clear
9:54 AM 78.1 °F - 64.0 °F 62% 30.14 in 10.0 mi Calm Calm - N/A   Clear
10:54 AM 81.0 °F 82.2 °F 63.0 °F 54% 30.14 in 10.0 mi ENE 3.5 mph - N/A   Clear
11:54 AM 81.0 °F 81.1 °F 57.9 °F 45% 30.14 in 10.0 mi Calm Calm - N/A   Clear
12:54 PM 84.0 °F 82.9 °F 55.0 °F 37% 30.13 in 10.0 mi Variable 3.5 mph - N/A   Partly Cloudy
1:54 PM 84.0 °F - 52.0 °F 33% 30.12 in 10.0 mi Variable 4.6 mph - N/A   Clear
2:54 PM 84.9 °F 83.2 °F 53.1 °F 33% 30.10 in 10.0 mi East 3.5 mph - N/A   Scattered Clouds
3:54 PM 87.1 °F 85.1 °F 54.0 °F 32% 30.09 in 10.0 mi Variable 4.6 mph - N/A   Clear
4:54 PM 84.9 °F 83.3 °F 54.0 °F 34% 30.09 in 10.0 mi Calm Calm - N/A   Mostly Cloudy
5:54 PM 82.0 °F 82.4 °F 60.1 °F 47% 30.08 in 10.0 mi Variable 5.8 mph - N/A   Mostly Cloudy
6:54 PM 79.0 °F - 61.0 °F 54% 30.09 in 10.0 mi Variable 4.6 mph - N/A   Mostly Cloudy
7:54 PM 75.9 °F - 62.1 °F 62% 30.10 in 10.0 mi Variable 4.6 mph - N/A   Clear
8:54 PM 73.0 °F - 62.1 °F 68% 30.10 in 10.0 mi Calm Calm - N/A   Clear
9:54 PM 71.1 °F - 62.1 °F 73% 30.11 in 10.0 mi Calm Calm - N/A   Clear
10:54 PM 69.1 °F - 62.1 °F 78% 30.12 in 10.0 mi Calm Calm - N/A   Clear
11:54 PM 66.0 °F - 61.0 °F 84% 30.12 in 10.0 mi Calm Calm - N/A   Clear